CAPE
0 0 0 0 0 0 0 0 0 0 0 0 0 0 0 0 0 0 0 0 0 2 2 4 5 4 2 1 1 2 1 1 1 16 46 53 110 162 374 470 446 492 448
0 0 0 0 0 0 0 0 0 0 0 0 0 0 0 0 0 0 0 0 1 1 1 1 2 2 6 8 6 5 4 3 2 0 2 7 54 116 81 117 279 365 406
0 0 0 0 0 0 0 0 0 0 0 0 0 0 0 0 0 0 0 0 0 0 1 2 3 1 2 3 7 9 9 13 10 10 2 1 0 0 0 1 2 28 200
0 0 0 0 0 0 0 0 0 0 0 0 0 0 0 0 0 0 0 0 0 0 0 0 0 1 5 5 9 12 12 9 13 15 19 27 18 18 14 2 1 8 6
0 0 0 0 0 0 0 0 0 0 0 0 0 0 0 0 0 0 0 0 0 0 0 0 0 0 0 0 0 2 4 8 14 20 27 31 23 28 25 25 26 25 135
0 0 0 0 0 0 0 0 0 0 0 0 0 0 0 0 0 0 0 0 0 0 0 0 0 0 0 0 0 0 0 1 2 36 21 23 24 19 19 27 29 11 5
0 0 0 0 0 0 0 0 0 0 0 0 0 0 0 0 0 0 0 0 0 0 0 0 0 0 0 0 0 0 0 0 1 8 30 21 3 3 6 4 9 23 21
0 0 0 0 0 0 0 0 0 0 0 0 0 0 0 0 0 0 0 0 0 0 0 0 0 0 0 0 0 0 0 0 0 3 5 10 4 2 3 2 5 26 10
0 0 0 0 0 0 0 0 0 0 0 0 0 0 0 0 0 0 0 0 0 0 0 0 0 0 0 0 0 0 0 0 0 1 4 6 1 2 1 3 29 21 10
0 0 0 0 0 0 0 0 0 0 0 0 0 0 0 0 0 0 0 0 0 0 0 0 0 0 0 0 0 0 0 0 0 0 2 6 4 4 4 3 7 5 0
0 0 0 0 0 0 0 0 0 0 0 0 0 0 0 0 0 0 0 0 0 0 0 0 0 0 0 0 0 0 0 0 0 1 2 4 3 2 4 4 4 3 3
0 0 0 0 0 0 0 0 0 0 0 0 0 0 0 0 0 0 0 0 0 0 0 0 0 0 0 0 0 0 0 0 0 0 2 5 3 2 2 2 3 2 3
0 0 0 0 0 0 0 0 0 0 0 0 0 0 0 0 0 0 0 0 0 0 0 0 0 0 0 0 0 0 0 0 0 0 0 4 2 1 1 2 2 2 3
0 0 0 0 0 0 0 0 0 0 0 0 0 0 0 0 0 0 0 0 0 0 0 0 0 0 0 0 0 0 0 0 0 0 0 0 1 1 1 1 2 1 2
0 0 0 0 0 0 0 0 0 0 0 0 0 0 0 0 0 0 0 0 0 0 0 0 0 0 0 0 0 0 0 0 0 0 0 0 0 1 3 2 1 2 2
0 0 0 0 0 0 0 0 0 0 0 0 0 0 0 0 0 0 0 0 0 0 0 0 0 0 0 0 0 0 0 0 0 0 0 0 0 1 2 2 3 2 1
0 0 0 0 0 0 0 0 0 0 0 0 0 0 0 0 0 0 0 0 0 0 0 0 0 0 0 0 0 0 0 0 0 0 0 0 0 2 1 1 1 3 2
0 0 0 0 0 0 0 0 0 0 0 0 0 0 0 0 0 0 0 0 0 0 0 0 0 0 0 0 0 0 0 0 0 0 0 0 0 2 4 3 0 1 1
0 0 0 0 0 0 0 0 0 0 0 0 0 0 0 0 0 0 0 0 0 0 0 0 0 0 0 0 0 0 0 0 0 0 0 0 0 1 2 0 0 0 1
0 0 0 0 0 0 0 0 0 0 0 0 0 0 0 0 0 0 0 0 0 0 0 0 0 0 0 0 0 0 0 0 0 0 0 0 0 0 0 0 0 0 0
0 0 0 0 0 0 0 0 0 0 0 0 0 0 0 0 0 0 0 0 0 0 0 0 0 0 0 0 0 0 0 0 0 0 0 0 0 0 0 0 0 0 0
0 0 0 0 0 0 0 0 0 0 0 0 0 0 0 0 0 0 0 0 0 0 0 0 0 0 0 0 0 0 0 0 0 0 0 0 0 0 0 0 0 0 0
0 0 0 0 0 0 0 0 0 0 0 0 0 0 0 0 0 0 0 0 0 0 0 0 0 0 0 0 0 0 0 0 0 0 0 0 0 0 0 0 0 0 1
0 0 0 0 0 0 0 0 0 1 0 0 1 1 1 0 0 0 0 0 0 0 0 0 0 0 0 0 0 0 0 0 0 0 0 0 0 0 0 0 0 0 3
0 0 0 0 0 0 0 0 0 1 0 0 0 1 1 1 1 1 0 0 0 0 0 0 0 0 0 0 0 0 0 0 1 0 0 0 0 0 0 0 0 0 0
0 0 0 0 0 0 0 0 1 0 0 0 0 0 0 1 0 2 0 0 0 0 0 0 15 1 1 1 0 0 0 0 1 0 0 0 0 0 0 0 0 0 0
CIN
-0 -0 -0 -0 -0 -0 -0 -0 -0 -0 -0 -0 -0 -0 -0 -0 -0 -0 -0 -0 -0 -0 -0 -0 -0 -0 -0 -0 -0 -0 -0 -0 -0 -191 -218 -172 -90 -40 -1 -0 -0 -0 -0
-0 -0 -0 -0 -0 -0 -0 -0 -0 -0 -0 -0 -0 -0 -0 -0 -0 -0 -0 -0 -0 -0 -0 -1 -1 -0 -0 -0 -0 -0 -0 -0 -0 -0 -0 -100 -204 -112 -101 -63 -5 -0 -0
-0 -0 -0 -0 -0 -0 -0 -0 -0 -0 -0 -0 -0 -0 -0 -0 -0 -0 -0 -0 -0 -0 -0 -0 -0 -0 -0 -0 -0 -0 -1 -2 -1 -0 -0 -0 -0 -0 -0 -15 -12 -170 -21
-0 -0 -0 -0 -0 -0 -0 -0 -0 -0 -0 -0 -0 -0 -0 -0 -0 -0 -0 -0 -0 -0 -0 -0 -0 -0 -0 -0 -0 -0 -0 -0 -0 -0 -3 -0 -0 -0 -0 -0 -0 -194 -41
-0 -0 -0 -0 -0 -0 -0 -0 -0 -0 -0 -0 -0 -0 -0 -0 -0 -0 -0 -0 -0 -0 -0 -0 -0 -0 -0 -0 -0 -0 -0 -0 -0 -0 -0 -0 -1 -0 -0 -0 -0 -0 -120
-0 -0 -0 -0 -0 -0 -0 -0 -0 -0 -0 -0 -0 -0 -0 -0 -0 -0 -0 -0 -0 -0 -0 -0 -0 -0 -0 -0 -0 -0 -0 -0 -1 -0 -0 -0 -0 -0 -0 -0 -0 -0 -0
-0 -0 -0 -0 -0 -0 -0 -0 -0 -0 -0 -0 -0 -0 -0 -0 -0 -0 -0 -0 -0 -0 -0 -0 -0 -0 -0 -0 -0 -0 -0 -0 -0 -0 -0 -0 -1 -0 -0 -1 -0 -0 -0
-0 -0 -0 -0 -0 -0 -0 -0 -0 -0 -0 -0 -0 -0 -0 -0 -0 -0 -0 -0 -0 -0 -0 -0 -0 -0 -0 -0 -0 -0 -0 -0 -0 -0 -0 -0 -0 -0 -0 -0 -0 -0 -0
-0 -0 -0 -0 -0 -0 -0 -0 -0 -0 -0 -0 -0 -0 -0 -0 -0 -0 -0 -0 -0 -0 -0 -0 -0 -0 -0 -0 -0 -0 -0 -0 -0 -0 -0 -0 -0 -0 -0 -0 -0 -0 -0
-0 -0 -0 -0 -0 -0 -0 -0 -0 -0 -0 -0 -0 -0 -0 -0 -0 -0 -0 -0 -0 -0 -0 -0 -0 -0 -0 -0 -0 -0 -0 -0 -0 -0 -0 -0 -0 -0 -0 -0 -0 -0 -0
-0 -0 -0 -0 -0 -0 -0 -0 -0 -0 -0 -0 -0 -0 -0 -0 -0 -0 -0 -0 -0 -0 -0 -0 -0 -0 -0 -0 -0 -0 -0 -0 -0 -0 -0 -0 -0 -0 -0 -0 -0 -0 -0
-0 -0 -0 -0 -0 -0 -0 -0 -0 -0 -0 -0 -0 -0 -0 -0 -0 -0 -0 -0 -0 -0 -0 -0 -0 -0 -0 -0 -0 -0 -0 -0 -0 -0 -0 -0 -0 -0 -0 -0 -0 -0 -0
-0 -0 -0 -0 -0 -0 -0 -0 -0 -0 -0 -0 -0 -0 -0 -0 -0 -0 -0 -0 -0 -0 -0 -0 -0 -0 -0 -0 -0 -0 -0 -0 -0 -0 -0 -0 -0 -0 -0 -0 -0 -0 -0
-0 -0 -0 -0 -0 -0 -0 -0 -0 -0 -0 -0 -0 -0 -0 -0 -0 -0 -0 -0 -0 -0 -0 -0 -0 -0 -0 -0 -0 -0 -0 -0 -0 -0 -0 -0 -0 -0 -0 -0 -0 -0 -0
-0 -0 -0 -0 -0 -0 -0 -0 -0 -0 -0 -0 -0 -0 -0 -0 -0 -0 -0 -0 -0 -0 -0 -0 -0 -0 -0 -0 -0 -0 -0 -0 -0 -0 -0 -0 -0 -0 -0 -0 -0 -0 -0
-0 -0 -0 -0 -0 -0 -0 -0 -0 -0 -0 -0 -0 -0 -0 -0 -0 -0 -0 -0 -0 -0 -0 -0 -0 -0 -0 -0 -0 -0 -0 -0 -0 -0 -0 -0 -0 -0 -0 -0 -0 -0 -0
-0 -0 -0 -0 -0 -0 -0 -0 -0 -0 -0 -0 -0 -0 -0 -0 -0 -0 -0 -0 -0 -0 -0 -0 -0 -0 -0 -0 -0 -0 -0 -0 -0 -0 -0 -0 -0 -0 -0 -0 -0 -0 -0
-0 -0 -0 -0 -0 -0 -0 -0 -0 -0 -0 -0 -0 -0 -0 -0 -0 -0 -0 -0 -0 -0 -0 -0 -0 -0 -0 -0 -0 -0 -0 -0 -0 -0 -0 -0 -0 -0 -0 -0 -0 -0 -0
-0 -0 -0 -0 -0 -0 -0 -0 -0 -0 -0 -0 -0 -0 -0 -0 -0 -0 -0 -0 -0 -0 -0 -0 -0 -0 -0 -0 -0 -0 -0 -0 -0 -0 -0 -0 -0 -0 -0 -0 -0 -0 -0
-0 -0 -0 -0 -0 -0 -0 -0 -0 -0 -0 -0 -0 -0 -0 -0 -0 -0 -0 -0 -0 -0 -0 -0 -0 -0 -0 -0 -0 -0 -0 -0 -0 -0 -0 -0 -0 -0 -0 -0 -0 -0 -0
-0 -0 -0 -0 -0 -0 -0 -0 -0 -0 -0 -0 -0 -0 -0 -0 -0 -0 -0 -0 -0 -0 -0 -0 -0 -0 -0 -0 -0 -0 -0 -0 -0 -0 -0 -0 -0 -0 -0 -0 -0 -0 -0
-0 -0 -0 -0 -0 -0 -0 -0 -0 -0 -0 -0 -0 -0 -0 -0 -0 -0 -0 -0 -0 -0 -0 -0 -0 -0 -0 -0 -0 -0 -0 -0 -0 -0 -0 -0 -0 -0 -0 -0 -0 -0 -0
-0 -0 -0 -0 -0 -0 -0 -0 -0 -0 -0 -0 -0 -0 -0 -0 -0 -0 -0 -0 -0 -0 -0 -0 -0 -0 -0 -0 -0 -0 -0 -0 -0 -0 -0 -0 -0 -0 -0 -0 -0 -0 -0
-0 -0 -0 -0 -0 -0 -0 -0 -0 -0 -0 -0 -0 -0 -0 -0 -0 -0 -0 -0 -0 -0 -0 -0 -0 -0 -0 -0 -0 -0 -0 -0 -0 -0 -0 -0 -0 -0 -0 -0 -0 -0 -0
-0 -0 -0 -0 -0 -0 -0 -0 -0 -0 -0 -0 -0 -0 -0 -0 -0 -0 -0 -0 -0 -0 -0 -0 -0 -0 -0 -0 -0 -0 -0 -0 -0 -0 -0 -0 -0 -0 -0 -0 -0 -0 -0
-0 -0 -0 -0 -0 -0 -0 -0 -0 -0 -0 -0 -0 -0 -0 -1 -1 -0 -0 -0 -0 -0 -0 -0 -0 -0 -0 -0 -0 -0 -0 -0 -0 -0 -0 -0 -0 -0 -0 -0 -0 -0 -0
Wind_Speed
24 23 25 25 26 26 26 26 26 26 26 26 26 23 22 22 21 19 18 22 22 21 21 22 23 23 24 24 23 24 25 26 26 27 27 27 25 25 25 24 27 30 29
21 19 20 26 26 26 26 26 27 27 25 25 25 22 21 21 20 19 19 20 21 22 23 23 23 24 24 24 24 25 25 26 26 27 27 28 28 27 26 26 27 28 29
21 20 21 26 26 26 26 26 25 25 25 26 26 23 21 20 19 20 20 20 20 21 22 22 23 23 23 24 25 26 26 26 26 26 27 28 28 28 27 28 29 30 29
21 21 22 23 25 26 27 27 27 27 26 28 26 22 20 18 18 19 19 20 20 21 22 22 23 23 24 25 25 26 27 26 27 28 28 28 27 27 27 28 30 31 31
22 22 22 24 25 26 27 27 27 26 27 29 25 23 21 19 19 20 20 20 21 21 22 23 23 23 24 24 25 26 27 27 27 27 28 25 26 24 27 28 30 31 30
22 22 22 24 25 25 26 27 27 26 25 29 25 23 21 19 19 20 20 20 21 22 22 23 23 23 25 25 26 27 28 28 27 28 26 27 26 26 27 28 28 28 29
22 22 23 23 23 25 25 26 26 27 26 29 26 25 21 19 19 20 21 21 22 23 23 24 24 25 26 27 28 29 29 29 27 26 27 27 28 29 30 31 32 32 30
21 22 23 24 24 24 25 26 27 27 26 28 28 25 25 23 21 21 21 22 24 23 24 24 24 25 26 27 28 29 30 30 28 26 26 28 29 31 31 32 33 31 31
20 20 21 22 23 23 24 25 25 26 27 25 26 25 26 25 29 22 21 22 24 25 26 24 24 25 26 26 27 28 30 30 29 28 27 28 29 32 32 32 32 31 32
21 20 20 21 21 22 23 24 24 25 25 27 25 23 23 24 27 29 23 24 24 27 27 24 25 25 26 26 27 28 30 30 30 30 29 29 30 32 32 32 33 33 34
22 21 21 21 21 21 22 23 24 24 24 25 25 25 25 24 24 25 31 27 29 27 29 28 26 24 26 27 27 28 30 30 31 30 29 30 31 32 32 31 31 33 33
24 22 20 20 20 21 22 23 23 23 24 24 24 24 24 26 26 26 29 31 32 28 28 29 23 25 26 27 28 28 30 31 31 31 30 30 31 31 31 31 31 32 33
27 25 22 22 22 22 21 21 22 22 22 23 23 24 23 24 24 26 28 31 33 30 29 26 24 24 25 26 28 30 31 31 31 31 31 31 31 31 31 31 31 32 32
27 26 24 23 22 22 22 22 23 23 23 23 24 24 25 25 25 26 28 31 36 33 31 28 24 23 23 26 29 30 31 31 31 31 31 31 30 30 31 31 31 31 31
26 26 25 26 26 25 25 25 25 25 25 25 26 26 27 27 26 25 25 25 28 35 34 28 27 23 23 28 32 30 31 31 29 30 31 31 31 30 30 31 30 30 30
28 28 29 28 28 28 28 28 28 27 27 27 27 26 25 26 26 25 25 25 25 29 35 30 29 27 27 32 32 30 30 30 29 29 30 30 31 29 29 30 30 29 29
30 31 31 31 31 32 32 31 30 30 29 28 27 26 26 26 27 27 27 28 29 29 35 35 32 30 31 32 31 30 30 29 29 28 29 30 31 28 28 30 30 28 28
32 33 33 34 35 35 34 34 33 32 31 31 30 29 29 30 30 30 30 30 30 30 33 38 34 33 32 30 30 31 30 28 28 27 29 30 29 27 28 29 29 28 29
36 36 36 37 37 37 37 36 35 35 34 33 33 33 33 33 34 34 33 34 33 33 33 36 38 33 32 30 31 31 29 28 27 26 29 29 26 26 27 28 29 28 28
37 38 37 37 38 39 39 39 38 38 37 37 37 37 38 38 39 39 37 36 35 35 34 36 37 36 34 30 30 32 32 27 27 27 27 24 22 27 28 28 27 25 25
38 38 39 40 40 40 40 41 42 42 42 42 41 41 41 41 40 40 40 39 37 37 37 37 37 35 33 31 31 28 28 28 28 26 24 22 26 28 27 25 24 23 24
40 40 41 41 42 41 43 44 44 45 45 46 47 46 45 44 43 42 41 40 38 38 38 36 35 34 33 30 27 26 26 27 28 21 23 28 27 29 26 24 24 25 28
42 43 43 42 43 43 44 44 45 46 47 47 48 49 49 47 46 44 43 42 40 37 34 33 33 32 31 27 25 24 23 24 24 25 26 30 26 28 24 25 24 28 24
45 45 45 44 44 44 45 47 48 47 48 48 48 48 48 49 46 45 44 41 38 35 33 31 31 30 27 24 21 20 21 23 24 24 24 29 24 26 25 25 25 20 16
46 46 45 46 48 48 47 48 48 48 48 49 48 47 47 48 46 43 41 39 36 33 31 30 28 25 23 21 18 18 20 21 24 23 21 25 25 25 25 24 19 17 18
48 47 48 47 48 49 48 46 46 47 50 50 48 46 46 46 45 43 38 35 33 30 28 28 26 24 22 18 17 17 18 20 21 26 20 18 21 23 23 21 18 16 23
Wind_Direction
14 9 350 344 342 346 349 349 343 342 341 335 331 347 350 348 351 354 355 342 340 342 341 337 333 332 331 330 330 328 324 321 318 317 314 313 313 312 308 305 300 295 291
28 35 19 340 344 347 341 342 339 337 345 343 341 352 352 354 356 357 355 351 345 342 338 337 335 334 332 332 331 328 325 323 322 320 319 316 313 310 308 307 304 301 297
26 28 19 349 350 343 343 346 352 351 345 341 342 348 352 354 356 352 349 347 344 344 344 341 339 339 336 332 328 328 329 331 331 328 322 317 314 311 309 306 303 300 299
23 23 15 8 351 349 342 340 340 340 344 340 343 349 353 356 355 352 352 349 344 342 342 341 341 339 338 335 334 333 332 333 330 329 326 326 323 318 314 310 306 302 297
13 12 8 359 351 347 346 341 344 345 341 336 342 344 345 347 345 344 345 345 342 341 340 340 341 341 341 339 337 333 332 334 334 334 332 333 331 328 321 315 311 308 303
4 4 4 359 354 352 348 346 345 347 346 336 339 339 341 344 343 343 343 343 341 337 338 337 336 338 338 336 335 332 331 332 332 335 336 337 332 331 327 325 321 315 310
355 355 354 355 356 352 352 351 347 342 342 339 337 336 337 341 339 338 338 338 335 334 336 335 334 332 330 331 331 329 328 331 333 334 337 334 328 325 321 318 315 314 313
351 352 352 350 348 348 348 348 344 341 343 343 337 337 333 333 333 334 335 333 333 335 334 334 333 331 329 329 329 328 326 328 329 330 330 331 326 321 319 317 313 314 314
349 352 353 351 350 350 347 348 347 345 341 344 344 340 334 330 329 336 332 330 330 331 331 332 331 329 329 329 329 328 328 327 328 328 328 329 327 319 316 314 313 316 316
341 345 348 348 348 348 345 344 344 341 341 337 340 341 338 333 328 326 332 330 328 327 327 328 328 327 328 329 329 329 328 327 327 325 326 326 325 320 316 314 313 313 313
336 338 340 342 343 343 341 340 338 337 337 334 334 333 333 332 329 326 323 327 325 326 324 325 323 325 327 328 329 328 328 327 326 325 325 324 322 318 317 316 316 315 315
332 335 337 338 338 338 337 336 335 333 333 332 331 330 329 328 328 325 322 324 323 327 325 324 324 323 324 326 327 327 327 325 324 323 322 320 318 318 317 317 316 316 315
330 332 335 335 335 335 335 335 333 332 331 329 328 326 325 323 323 323 321 320 320 323 324 322 320 320 322 324 325 324 323 322 321 320 318 317 317 318 317 317 316 315 315
333 336 336 336 335 334 332 331 329 327 326 324 322 321 320 318 318 316 317 317 316 318 320 320 321 317 319 323 324 323 321 319 318 318 317 317 317 317 317 316 316 315 315
337 337 337 334 333 331 328 326 324 322 320 320 318 317 316 316 315 315 314 314 314 316 317 321 320 319 315 318 320 320 320 319 318 318 318 317 316 315 316 316 315 315 314
338 337 336 334 333 331 328 326 323 321 318 317 316 315 314 315 314 312 311 310 308 308 310 318 316 315 314 315 317 318 318 318 317 316 316 316 316 314 315 315 315 314 314
341 339 337 335 333 331 329 327 324 322 319 316 314 311 310 310 310 309 307 306 304 303 303 307 311 313 312 312 315 316 317 316 316 315 315 315 315 313 314 315 314 314 312
338 336 335 332 331 329 328 326 324 323 320 317 314 311 308 308 305 305 303 300 299 299 299 301 306 308 308 311 312 313 314 315 315 314 314 314 314 312 313 314 314 311 306
334 334 333 331 329 328 326 325 323 321 319 316 314 311 309 307 302 301 299 298 297 296 296 297 301 306 307 309 309 310 311 313 313 314 314 314 314 314 315 314 311 307 304
333 332 332 330 329 327 326 324 323 321 319 316 314 311 309 305 302 300 296 293 293 292 292 294 296 299 302 305 305 305 307 311 311 314 315 316 319 318 316 313 310 308 306
333 332 330 329 328 327 326 324 322 320 318 316 314 312 309 306 302 298 296 293 289 289 289 290 291 294 297 300 300 305 305 308 310 313 315 315 316 318 316 315 311 309 305
332 331 329 329 327 327 326 324 322 320 319 317 315 313 311 308 305 300 294 288 286 283 284 285 287 287 292 296 299 300 303 306 308 314 315 314 316 314 315 314 309 306 303
330 329 329 328 327 326 326 324 323 321 319 318 316 314 313 311 308 304 299 291 282 278 276 280 281 283 287 291 295 297 299 303 305 309 313 312 317 314 317 310 307 304 304
329 329 328 328 327 326 325 323 322 321 320 319 318 317 316 313 310 306 301 296 288 277 272 274 278 282 284 289 289 294 299 303 305 307 312 311 318 315 317 312 308 307 309
329 328 328 327 326 325 326 324 323 322 321 321 321 320 319 317 314 310 304 297 291 283 274 269 273 278 282 282 285 291 295 298 302 307 315 313 314 314 315 313 314 307 304
327 327 326 327 327 326 326 325 325 323 321 321 322 322 322 321 318 314 306 299 290 283 275 274 272 274 278 276 276 281 290 293 300 307 317 316 316 317 314 313 310 306 299